Starlink 32878

operational
NORAD ID: 62892 Int'l Des: 2025-024 Owner: SPXS Country: US Constellation: starlink
LEOCIRCULAR

关于 Starlink 32878

正在加载描述...

实时位置

正在加载3D地球...

即将过境

高度历史

Altitude vs Time

uPlot chart will show altitude changes over time

两行轨道根数

1 62892U 25024P 25259.29882461 .00039828 00000-0 14472-2 0 9993
2 62892 43.0013 230.3621 0001302 266.3244 93.7459 15.27622645 35599
Epoch: Sep 16, 2025 • Age: 17 hours

当前状态

高度 483.5 km
速度 7.63 km/s
星下点 27.61°N, 105.32°W
发射日期 Feb 4, 2025
运行时间 0.6 years
类型 internet

技术详情

分类 Payload
质量 730.00 kg
干质量 700.00 kg
总质量 730.00 kg
长度 0.30 m
直径 4.10 m
跨度 29.00 m
形状 Box + pan
制造商 SPXS
平台类型 Starlink V2M
阶段状态 In Orbit
所有者/国家 SPXS/US

大型星座

Loading constellations...